sat.trackr.live / text

‹ back to catalog

STARLINK-34644

NORAD 64812 · 2025-150Y

PAYLOAD ACTIVE UNKNOWN

§ Identity

Operator
Country
US
Launch date
2025-07-16
Launch site
AFWTR
Launch vehicle
Mass (kg)
RCS (m²)

Purposes: comms

External: N2YO · Heavens-Above · Gunter

§ Orbital elements

Epoch: 2026-09-20T13:25:49.094400Z

Period
96.11 min
Inclination
70.0028°
Eccentricity
0.0003238
Mean motion
14.98321259 rev/d
Perigee alt
569.8 km
Apogee alt
574.3 km
Semi-major
6,950.2 km
B*
3.7991e-4
RAAN
3.1804°
Arg perigee
269.0182°
Mean anomaly
91.0606°
Rev number
6,570

§ Raw data

STARLINK-346441 64812U 25150Y   26263.55959600  .00004442  00000+0  37991-3 0  99972 64812  70.0028   3.1804 0003238 269.0182  91.0606 14.98321259 65704

JSON: /api/v1/satellites/64812 · /tle

For live sub-satellite position, see the globe view (requires WebGL).

§ Visibility from observer

Set your observer location to see the next 7 days of passes ≥ 10°. The values pass through the URL so the page stays shareable.

No JS? Fill the form by hand. The geolocation button needs JavaScript.